When you browse on this site, cookies collect data to enhance your experience and personalize the content and advertising you see.
Visit our Privacy Policy to learn more. By continuing to use the site, you agree to this use of cookies and data.
  • In Latvia
  • List of Countries
  • For 7 days
  • Water Temperature
  • Satellite Maps
  • Weather Map
  • Weather Widgets
  • user-avatar
    Login

    Hourly Weather Lubiaz

    Today, 19 February, Tuesday

    Time Temperature Precipitation Wind Pressure Humidity
    00:00 +5°C° 0 mm 2 mps 753 mmHg 62%
    01:00 +4°C° 0 mm 2 mps 753 mmHg 63%
    02:00 +4°C° 0 mm 2 mps 752 mmHg 64%
    03:00 +4°C° 0 mm 2 mps 752 mmHg 64%
    04:00 +4°C° 0 mm 2 mps 752 mmHg 65%
    05:00 +3°C° 0 mm 2 mps 752 mmHg 66%
    06:00 +3°C° 0 mm 2 mps 752 mmHg 66%
    07:00 +3°C° 0 mm 2 mps 751 mmHg 67%
    08:00 +4°C° 0 mm 3 mps 751 mmHg 62%
    09:00 +7°C° 0 mm 3 mps 751 mmHg 57%
    10:00 +7°C° 0 mm 4 mps 751 mmHg 53%
    11:00 +10°C° 0 mm 4 mps 751 mmHg 52%
    12:00 +10°C° 0 mm 5 mps 751 mmHg 51%
    13:00 +12°C° 0 mm 5 mps 751 mmHg 50%
    14:00 +10°C° 0 mm 5 mps 751 mmHg 54%
    15:00 +10°C° 0 mm 5 mps 751 mmHg 57%
    16:00 +10°C° 0 mm 5 mps 750 mmHg 61%
    17:00 +10°C° 0 mm 4 mps 751 mmHg 67%
    18:00 +8°C° 0 mm 4 mps 751 mmHg 73%
    19:00 +7°C° 0 mm 4 mps 751 mmHg 79%
    20:00 +6°C° 0 mm 4 mps 751 mmHg 82%
    21:00 +6°C° 0 mm 4 mps 751 mmHg 85%
    22:00 +5°C° 0 mm 4 mps 752 mmHg 87%
    23:00 +5°C° 0 mm 5 mps 752 mmHg 85%

    Tomorrow, 20 February, Wednesday

    Time Temperature Precipitation Wind Pressure Humidity
    00:00 +3°C° 0 mm 5 mps 752 mmHg 82%
    01:00 +3°C° 0 mm 5 mps 753 mmHg 80%
    02:00 +3°C° 0 mm 5 mps 753 mmHg 81%
    03:00 +3°C° 0 mm 5 mps 753 mmHg 83%
    04:00 +2°C° 0 mm 5 mps 753 mmHg 84%
    05:00 +2°C° 0 mm 5 mps 753 mmHg 84%
    06:00 +3°C° 0 mm 5 mps 753 mmHg 83%
    07:00 +3°C° 0 mm 5 mps 754 mmHg 83%
    08:00 +3°C° 0 mm 5 mps 754 mmHg 80%
    09:00 +4°C° 0 mm 6 mps 754 mmHg 77%
    10:00 +4°C° 0 mm 6 mps 755 mmHg 73%
    11:00 +5°C° 0 mm 6 mps 755 mmHg 70%
    12:00 +7°C° 0 mm 6 mps 755 mmHg 66%
    13:00 +7°C° 0 mm 6 mps 755 mmHg 62%
    14:00 +7°C° 0 mm 5 mps 755 mmHg 63%
    15:00 +7°C° 0 mm 4 mps 755 mmHg 65%
    16:00 +7°C° 0 mm 4 mps 755 mmHg 66%
    17:00 +8°C° 0 mm 3 mps 755 mmHg 70%
    18:00 +7°C° 0 mm 3 mps 756 mmHg 73%
    19:00 +7°C° 0 mm 3 mps 756 mmHg 76%
    20:00 +5°C° 0 mm 3 mps 756 mmHg 76%
    21:00 +5°C° 0 mm 3 mps 756 mmHg 76%
    22:00 +4°C° 0 mm 3 mps 757 mmHg 76%
    23:00 +4°C° 0 mm 3 mps 757 mmHg 76%

    Day after tomorrow, 21 February, Thursday

    Time Temperature Precipitation Wind Pressure Humidity
    00:00 +4°C° 0 mm 3 mps 757 mmHg 75%
    01:00 +4°C° 0 mm 3 mps 757 mmHg 75%
    02:00 +4°C° 0.1 mm 4 mps 756 mmHg 77%
    03:00 +4°C° 0.1 mm 4 mps 756 mmHg 78%
    04:00 +5°C° 0.1 mm 4 mps 756 mmHg 80%
    05:00 +5°C° 0.3 mm 4 mps 756 mmHg 82%
    06:00 +5°C° 0.3 mm 5 mps 756 mmHg 83%
    07:00 +5°C° 0.3 mm 5 mps 756 mmHg 84%
    08:00 +4°C° 0.4 mm 6 mps 756 mmHg 84%
    09:00 +5°C° 0.4 mm 6 mps 756 mmHg 83%
    10:00 +5°C° 0.4 mm 7 mps 756 mmHg 82%
    11:00 +5°C° 0.9 mm 7 mps 756 mmHg 82%
    12:00 +5°C° 0.9 mm 7 mps 756 mmHg 82%
    13:00 +6°C° 0.9 mm 7 mps 756 mmHg 82%
    14:00 +6°C° 0.5 mm 7 mps 756 mmHg 83%
    15:00 +6°C° 0.5 mm 7 mps 756 mmHg 83%
    16:00 +6°C° 0.5 mm 7 mps 756 mmHg 84%
    17:00 +6°C° 0.1 mm 7 mps 756 mmHg 86%
    18:00 +7°C° 0.1 mm 6 mps 757 mmHg 88%
    19:00 +7°C° 0.1 mm 6 mps 757 mmHg 90%
    20:00 +7°C° 0.1 mm 6 mps 758 mmHg 90%
    21:00 +7°C° 0.1 mm 5 mps 758 mmHg 90%
    22:00 +7°C° 0.1 mm 5 mps 758 mmHg 91%
    23:00 +7°C° 0.2 mm 5 mps 759 mmHg 89%

    22 February, Friday

    Time Temperature Precipitation Wind Pressure Humidity
    00:00 +7°C° 0.2 mm 5 mps 759 mmHg 86%
    01:00 +6°C° 0.2 mm 5 mps 760 mmHg 84%
    02:00 +6°C° 0 mm 5 mps 760 mmHg 87%
    03:00 +5°C° 0 mm 4 mps 761 mmHg 89%
    04:00 +4°C° 0 mm 4 mps 761 mmHg 91%
    05:00 +4°C° 0 mm 4 mps 762 mmHg 89%
    06:00 +4°C° 0 mm 4 mps 763 mmHg 87%
    07:00 +3°C° 0 mm 4 mps 763 mmHg 84%
    08:00 +3°C° 0 mm 3 mps 764 mmHg 78%
    09:00 +3°C° 0 mm 3 mps 765 mmHg 71%
    10:00 +3°C° 0 mm 3 mps 766 mmHg 64%
    11:00 +3°C° 0 mm 3 mps 766 mmHg 58%
    12:00 +4°C° 0 mm 3 mps 767 mmHg 53%
    13:00 +4°C° 0 mm 3 mps 767 mmHg 48%
    14:00 +4°C° 0 mm 3 mps 768 mmHg 48%
    15:00 +4°C° 0 mm 3 mps 768 mmHg 48%
    16:00 +4°C° 0 mm 3 mps 768 mmHg 48%
    17:00 +3°C° 0 mm 3 mps 769 mmHg 52%
    18:00 +3°C° 0 mm 2 mps 769 mmHg 56%
    19:00 +2°C° 0 mm 2 mps 770 mmHg 60%
    20:00 +1°C° 0 mm 2 mps 770 mmHg 62%
    21:00 +1°C° 0 mm 2 mps 770 mmHg 64%
    22:00 -1°C° 0 mm 2 mps 771 mmHg 66%
    23:00 -1°C° 0 mm 2 mps 771 mmHg 65%

    23 February, Saturday

    Time Temperature Precipitation Wind Pressure Humidity
    00:00 -1°C° 0 mm 2 mps 771 mmHg 65%
    01:00 -2°C° 0 mm 2 mps 771 mmHg 65%
    02:00 -2°C° 0 mm 2 mps 771 mmHg 64%
    03:00 -2°C° 0 mm 2 mps 770 mmHg 63%
    04:00 -2°C° 0 mm 2 mps 770 mmHg 61%
    05:00 -2°C° 0 mm 2 mps 770 mmHg 60%
    06:00 -2°C° 0 mm 2 mps 770 mmHg 58%
    07:00 -1°C° 0 mm 2 mps 770 mmHg 57%
    08:00 +2°C° 0 mm 1 mps 770 mmHg 53%
    09:00 +3°C° 0 mm 1 mps 769 mmHg 49%
    10:00 +5°C° 0 mm 1 mps 769 mmHg 44%
    11:00 +5°C° 0 mm 2 mps 769 mmHg 45%
    12:00 +7°C° 0 mm 2 mps 768 mmHg 45%
    13:00 +8°C° 0 mm 3 mps 768 mmHg 45%
    14:00 +8°C° 0 mm 3 mps 768 mmHg 50%
    15:00 +8°C° 0 mm 2 mps 767 mmHg 54%
    16:00 +8°C° 0 mm 2 mps 767 mmHg 58%
    17:00 +7°C° 0 mm 2 mps 767 mmHg 63%
    18:00 +5°C° 0 mm 3 mps 767 mmHg 68%
    19:00 +4°C° 0 mm 3 mps 766 mmHg 73%
    20:00 +4°C° 0 mm 3 mps 766 mmHg 77%
    21:00 +3°C° 0 mm 3 mps 766 mmHg 80%
    22:00 +3°C° 0 mm 3 mps 766 mmHg 84%
    23:00 +3°C° 0 mm 3 mps 766 mmHg 87%

    24 February, Sunday

    Time Temperature Precipitation Wind Pressure Humidity
    00:00 +3°C° 0 mm 3 mps 766 mmHg 89%
    01:00 +2°C° 0 mm 3 mps 766 mmHg 92%
    02:00 +2°C° 0 mm 3 mps 766 mmHg 93%
    03:00 +2°C° 0 mm 3 mps 766 mmHg 94%
    04:00 +2°C° 0 mm 3 mps 766 mmHg 95%
    05:00 +2°C° 0 mm 3 mps 766 mmHg 95%
    06:00 +2°C° 0 mm 3 mps 766 mmHg 95%
    07:00 +2°C° 0 mm 3 mps 766 mmHg 95%
    08:00 +4°C° 0 mm 3 mps 766 mmHg 91%
    09:00 +5°C° 0 mm 3 mps 766 mmHg 86%
    10:00 +8°C° 0 mm 3 mps 766 mmHg 81%
    11:00 +9°C° 0 mm 3 mps 765 mmHg 75%
    12:00 +11°C° 0 mm 3 mps 765 mmHg 69%
    13:00 +12°C° 0 mm 4 mps 764 mmHg 62%
    14:00 +12°C° 0 mm 3 mps 764 mmHg 62%
    15:00 +13°C° 0 mm 3 mps 763 mmHg 62%
    16:00 +13°C° 0 mm 3 mps 763 mmHg 62%
    17:00 +11°C° 0 mm 3 mps 763 mmHg 67%
    18:00 +10°C° 0 mm 3 mps 762 mmHg 73%
    19:00 +8°C° 0 mm 3 mps 762 mmHg 78%
    20:00 +8°C° 0 mm 3 mps 761 mmHg 78%
    21:00 +8°C° 0 mm 3 mps 761 mmHg 77%
    22:00 +7°C° 0 mm 3 mps 761 mmHg 77%
    23:00 +6°C° 0 mm 4 mps 760 mmHg 76%
    Show more